Flag for U.S.A. Weather past 2 weeks in Minot, North Dakota, U.S.A.

Now
76 °F

Sunny.


Feels Like: 78 °F
Forecast: 56 / 81 °F
Wind: 6 mph from North

Location: Minot International Airport

Current Time: Jul 30, 2014 at 8:33:21 PM

Latest Report: Jul 30, 2014 at 7:54 PM


Visibility: 10 mi

Pressure: 30.09 "Hg

Humidity: 56%

Dew point: 59 °F

Location of MinotLocation

Historic Weather in Minot — Graph

°F

Minot temperature yesterday

Maximum temperature yesterday: 77 °F (at 2:54 PM)
Minimum temperature yesterday: 56 °F (at 1:54 AM)
Average temperature yesterday: 67 °F

Past Weeks' High & Low Weather Summary

 TemperatureHumidityPressure
High90 °F (Jul 20, 1:54 PM)100% (Jul 16, 9:54 AM)30.33 "Hg (Jul 16, 9:54 AM)
Low51 °F (Jul 28, 6:54 AM)28% (Jul 20, 1:54 PM)29.55 "Hg (Jul 20, 3:54 AM)
Average68 °F69%29.95 "Hg
* Reported Jul 15 6:54 PM — Jul 30 6:54 PM, Minot, Weather by CustomWeather, © 2014

Note: Actual official high and low records may vary slightly from our data, if they occured in-between our weather recording intervals... More about our weather records

Advertising

Minot weather history for previous 24 hours

 ConditionsComfort  
Time TempWeatherWind HumidityBarometerVisibility
6:54 PM
Jul 30
77 °FPassing clouds.8 mph54%30.09 "Hg10 mi
5:54 PM79 °FPassing clouds.9 mph48%30.09 "Hg10 mi
4:54 PM79 °FSunny.8 mph44%30.10 "Hg10 mi
3:54 PM79 °FSunny.6 mph38%30.12 "Hg10 mi
2:54 PM79 °FBroken clouds.8 mph42%30.12 "Hg10 mi
1:54 PM78 °FScattered clouds.6 mph48%30.12 "Hg10 mi
12:54 PM77 °FSunny.No wind50%30.13 "Hg10 mi
11:54 AM75 °FPassing clouds.5 mph60%30.14 "Hg10 mi
10:54 AM74 °FSunny.No wind62%30.15 "Hg10 mi
9:54 AM70 °FSunny.No wind68%30.15 "Hg10 mi
8:54 AM65 °FSunny.3 mph81%30.15 "Hg10 mi
7:54 AM59 °FSunny.No wind93%30.15 "Hg10 mi
6:54 AM57 °FClear.No wind90%30.15 "Hg9 mi
5:54 AM59 °FPassing clouds.3 mph90%30.15 "Hg10 mi
4:54 AM58 °FClear.No wind90%30.15 "Hg8 mi
3:54 AM61 °FOvercast.6 mph90%30.14 "Hg10 mi
2:54 AM61 °FPassing clouds.3 mph90%30.14 "Hg10 mi
1:54 AM62 °FClear.6 mph90%30.14 "Hg10 mi
12:54 AM63 °FClear.7 mph90%30.14 "Hg10 mi
11:54 PM
Jul 29
62 °FClear.No wind90%30.14 "Hg10 mi
10:54 PM62 °FClear.5 mph90%30.14 "Hg10 mi
9:54 PM67 °FSunny.No wind79%30.12 "Hg10 mi
8:54 PM70 °FSunny.No wind76%30.12 "Hg10 mi
Weather by CustomWeather, © 2014

See weather overviewHow to use our weather pages